[[{"header":{"parameterUnit":"m.s-1","parameterCategory":1,"la1":30.2991,"la2":30.254,"lo1":-89.0895,"lo2":-89.0444,"dy":0.0017,"dx":0.0017,"nx":28,"ny":28,"refTime":"2023-08-17T21:00:00:Z","depth":0,"parameterNumber":2,"parameterNumberName":"U-component_of_WINDS"},"data":[0,0,0,0,0,0,0,0,0,0,0,0,0,0,0,0,0,0,0,0,0,0,0,0,0,0,0,0,0,0,0,0,0,0,0,0,0,0,0,0,0,0,0,0,0,0,0,0,0,0,0,0,0,0,0,0,0,0,2.7246,2.7247,0,2.73,2.7301,2.7301,2.7323,2.7323,2.7323,2.7323,2.7381,2.7383,2.7385,0,0,0,0,0,0,0,0,0,0,0,0,0,2.7166,2.7167,2.7246,2.7247,2.7247,2.73,2.7301,2.7302,2.7323,2.7323,2.7323,2.7322,2.7381,2.7383,2.7385,0,0,0,0,0,0,0,0,0,0,0,0,0,2.7208,2.7167,2.7246,2.7264,2.7266,2.73,2.7301,2.7302,2.7323,2.7323,2.7323,2.7322,2.738,2.7383,2.7385,2.7405,0,0,2.7393,2.7394,0,0,0,0,0,0,0,0,2.7206,2.7211,2.7261,2.7263,2.7266,2.7305,2.7294,2.7337,2.7323,2.7302,2.7323,2.7322,2.7356,2.7361,2.7371,2.7408,2.7411,2.7393,2.7395,2.7396,2.7396,0,0,0,0,0,0,0,2.7203,2.7209,2.7268,2.7262,2.7264,2.7271,2.7277,2.7302,2.733,2.7303,2.7305,2.7311,2.7357,2.7369,2.7373,2.7411,2.7393,2.7395,2.7397,2.7398,2.747,2.7471,0,0,0,0,0,0,2.7196,2.7206,2.7266,2.7269,2.7234,2.7273,2.7279,2.7292,2.7329,2.7335,2.7311,2.7312,2.7365,2.737,2.7375,2.7403,2.7396,2.7398,2.74,2.747,2.747,2.7471,0,0,0,0,0,0,2.7194,2.7201,2.7264,2.7238,2.7247,2.7275,2.7289,2.7293,2.7305,2.7335,2.7341,2.7318,2.7365,2.7372,2.7398,2.7405,2.7399,2.7402,2.7469,2.747,2.7471,2.7457,0,0,0,0,0,0,2.7192,2.72,2.7207,2.7238,2.7248,2.7284,2.7289,2.7295,2.7309,2.731,2.7343,2.7348,2.7365,2.7394,2.7401,2.7408,2.7404,2.7469,2.747,2.747,2.7457,2.7457,2.7457,0,0,0,0,0,2.7189,2.7201,2.7207,2.7214,2.7257,2.7284,2.729,2.7309,2.7309,2.7317,2.7337,2.7347,2.7403,2.7397,2.7404,2.7413,2.7469,2.7469,2.747,2.7457,2.7457,2.7457,0,0,0,0,0,0,2.7171,2.7206,2.7213,2.7235,2.7256,2.7288,2.7298,2.7308,2.733,2.7331,2.7354,2.7361,2.7386,2.7402,2.7394,2.7436,2.7437,2.7439,2.7424,2.7424,2.7424,2.742,2.7406,0,0,0,0,0,2.7169,2.7187,2.7217,2.7234,2.7245,2.727,2.7282,2.7295,2.7319,2.7328,2.735,2.7373,2.7397,2.7411,2.7434,2.746,2.7468,2.747,2.747,2.747,2.7471,2.7488,2.749,2.7474,2.7474,2.7474,0,0,2.7166,2.7188,2.7198,2.7231,2.7249,2.727,2.7277,2.7297,2.7313,2.7331,2.7358,2.7375,2.7403,2.7429,2.7442,2.7443,2.7478,2.7471,2.747,2.7472,2.7489,2.7491,2.7492,2.7474,2.7474,2.7474,0,0,2.7172,2.7189,2.7206,2.7224,2.7251,2.7268,2.7272,2.7303,2.7314,2.7341,2.7356,2.7376,2.7415,2.7435,2.745,2.7466,2.7476,2.7473,2.7473,2.7489,2.749,2.7492,2.7499,2.7501,2.7474,2.7474,2.7474,0,2.7165,2.7194,2.7213,2.7233,2.7249,2.7266,2.7285,2.7302,2.7335,2.7346,2.7347,2.7398,2.7418,2.745,2.7454,2.7466,2.7473,2.7469,2.7488,2.749,2.7491,2.7498,2.7501,2.7474,2.7474,2.7474,2.7474,0,2.7185,2.7206,2.7216,2.7248,2.7265,2.7284,2.7308,2.7323,2.7335,2.7352,2.738,2.7405,2.7435,2.7443,2.7455,2.7478,2.7478,2.7483,2.7485,2.7492,2.7499,2.7502,2.7473,2.7473,2.7473,2.7474,0,0,2.7179,2.7222,2.7226,2.7242,2.7274,2.7291,2.7312,2.734,2.7353,2.7377,2.7396,2.743,2.7436,2.7453,2.7468,2.7482,2.7495,2.7486,2.7487,2.7488,2.7524,2.752,2.7522,2.7502,2.7503,2.7503,2.7522,0,2.7189,2.7226,2.7245,2.7275,2.7295,2.7313,2.7332,2.7355,2.7372,2.7394,2.7414,2.7438,2.7442,2.7453,2.7468,2.749,2.7502,2.7489,2.7522,2.7523,2.7515,2.7526,2.7521,2.7538,2.7525,2.7525,2.7525,0,2.7205,2.7228,2.726,2.7292,2.7301,2.7317,2.7346,2.7365,2.7393,2.7405,2.7425,2.744,2.7465,2.7465,2.7502,2.7492,2.7507,2.752,2.7521,2.7525,2.7525,2.7531,2.7543,2.7546,2.753,2.7529,2.7529,0,2.7199,2.7238,2.7262,2.7275,2.7312,2.7324,2.734,2.7368,2.7384,2.741,2.7421,2.7449,2.7465,2.7488,2.7511,2.7508,2.7546,2.7547,2.7558,2.7557,2.7564,2.7564,2.758,2.7573,2.7573,2.7573,2.7573,0,2.7208,2.7227,2.726,2.7275,2.7297,2.732,2.7343,2.7361,2.7385,2.7406,2.7424,2.7443,2.7472,2.7495,2.7514,2.7542,2.7549,2.756,2.7565,2.7559,2.7558,2.7569,2.7569,2.7574,2.7574,2.7574,2.7573,0,2.7204,2.7227,2.7255,2.7289,2.7298,2.7313,2.7343,2.736,2.7379,2.7404,2.7412,2.7442,2.7471,2.7496,2.7534,2.7547,2.7576,2.7582,2.7566,2.7569,2.7579,2.7578,2.7603,2.7609,2.7597,2.7598,2.7598,0,2.7208,2.7224,2.7259,2.7274,2.729,2.7313,2.733,2.7355,2.7372,2.7406,2.7419,2.7449,2.7474,2.7519,2.7546,2.7576,2.7583,2.759,2.7587,2.7581,2.7584,2.7583,2.7586,2.7589,2.7589,2.7589,2.7589,0,2.7215,2.7226,2.7249,2.7277,2.7296,2.732,2.7344,2.7355,2.7384,2.7403,2.7432,2.7452,2.7491,2.7522,2.7555,2.7574,2.7587,2.759,2.7594,2.7588,2.7579,2.7586,2.7567,2.7589,2.7589,2.7589,2.7589,2.7589,2.7216,2.7231,2.7259,2.7285,2.7306,2.7328,2.7346,2.7367,2.7392,2.7425,2.7438,2.7469,2.7499,2.7545,2.7564,2.759,2.7592,2.7598,2.7599,2.76,2.76,2.7575,2.7596,2.7596,2.7596,2.7596,2.7596,0,2.7224,2.7243,2.7267,2.73,2.7321,2.7331,2.7359,2.7376,2.7402,2.7429,2.7453,2.7489,2.7519,2.7548,2.758,2.7595,2.7602,2.7603,2.7602,2.7607,2.7595,2.7589,2.7597,2.7597,2.7597,2.7597,2.7597,2.7597,2.723,2.7257,2.7271,2.7309,2.7329,2.7358,2.7373,2.7395,2.7417,2.7454,2.7479,2.7498,2.7527,2.7561,2.759,2.7598,2.761,2.7609,2.7619,2.7608,2.7607,2.7607,2.7601,2.7611,2.7611,2.7629,2.7629,2.7629]},{"header":{"parameterUnit":"m.s-1","parameterCategory":1,"la1":30.2991,"la2":30.254,"lo1":-89.0895,"lo2":-89.0444,"dy":0.0017,"dx":0.0017,"nx":28,"ny":28,"refTime":"2023-08-17T21:00:00:Z","depth":0,"parameterNumber":3,"parameterNumberName":"V-component_of_WINDS"},"data":[0,0,0,0,0,0,0,0,0,0,0,0,0,0,0,0,0,0,0,0,0,0,0,0,0,0,0,0,0,0,0,0,0,0,0,0,0,0,0,0,0,0,0,0,0,0,0,0,0,0,0,0,0,0,0,0,0,0,0.7061,0.7061,0,0.7049,0.7049,0.7049,0.7044,0.7044,0.7044,0.7044,0.7031,0.7031,0.703,0,0,0,0,0,0,0,0,0,0,0,0,0,0.7077,0.7077,0.7061,0.7061,0.7061,0.7049,0.7049,0.7049,0.7044,0.7044,0.7044,0.7044,0.7031,0.7031,0.703,0,0,0,0,0,0,0,0,0,0,0,0,0,0.7068,0.7077,0.7061,0.7057,0.7056,0.7049,0.7049,0.7049,0.7044,0.7044,0.7044,0.7044,0.7031,0.7031,0.703,0.7026,0,0,0.7029,0.7028,0,0,0,0,0,0,0,0,0.7069,0.7067,0.7058,0.7057,0.7057,0.7048,0.705,0.7041,0.7044,0.7049,0.7044,0.7044,0.7037,0.7036,0.7033,0.7026,0.7025,0.7028,0.7028,0.7028,0.7028,0,0,0,0,0,0,0,0.7069,0.7068,0.7056,0.7057,0.7057,0.7055,0.7054,0.7048,0.7043,0.7048,0.7048,0.7046,0.7036,0.7034,0.7033,0.7025,0.7028,0.7028,0.7028,0.7027,0.7011,0.7011,0,0,0,0,0,0,0.7071,0.7069,0.7057,0.7056,0.7063,0.7054,0.7053,0.7051,0.7043,0.7041,0.7046,0.7046,0.7035,0.7034,0.7032,0.7026,0.7028,0.7027,0.7027,0.7011,0.7011,0.7011,0,0,0,0,0,0,0.7071,0.707,0.7057,0.7062,0.706,0.7054,0.7052,0.7051,0.7048,0.7041,0.704,0.7045,0.7035,0.7033,0.7027,0.7026,0.7027,0.7027,0.7012,0.7011,0.7011,0.7014,0,0,0,0,0,0,0.7072,0.707,0.7069,0.7062,0.706,0.7053,0.7052,0.705,0.7047,0.7047,0.704,0.7039,0.7035,0.7028,0.7027,0.7025,0.7026,0.7012,0.7012,0.7011,0.7014,0.7014,0.7014,0,0,0,0,0,0.7072,0.7071,0.7069,0.7068,0.7059,0.7053,0.7052,0.7048,0.7047,0.7046,0.7041,0.7039,0.7026,0.7028,0.7026,0.7024,0.7012,0.7012,0.7011,0.7014,0.7014,0.7014,0,0,0,0,0,0,0.7078,0.707,0.7068,0.7064,0.7059,0.7052,0.705,0.7048,0.7043,0.7043,0.7037,0.7036,0.703,0.7026,0.7028,0.7019,0.7019,0.7018,0.7021,0.7021,0.7021,0.7022,0.7026,0,0,0,0,0,0.7078,0.7075,0.7068,0.7065,0.7063,0.7057,0.7054,0.7051,0.7046,0.7044,0.7039,0.7033,0.7028,0.7024,0.7019,0.7014,0.7011,0.7011,0.7011,0.7011,0.701,0.7005,0.7005,0.701,0.701,0.701,0,0,0.708,0.7075,0.7073,0.7066,0.7062,0.7057,0.7055,0.7051,0.7047,0.7043,0.7037,0.7033,0.7026,0.702,0.7017,0.7017,0.7008,0.7011,0.7011,0.701,0.7005,0.7005,0.7004,0.701,0.701,0.701,0,0,0.708,0.7077,0.7073,0.7069,0.7062,0.7058,0.7057,0.705,0.7047,0.7041,0.7037,0.7033,0.7024,0.7019,0.7015,0.7011,0.7008,0.701,0.7009,0.7004,0.7004,0.7003,0.7001,0.7,0.7009,0.7009,0.7009,0,0.7083,0.7076,0.7072,0.7067,0.7063,0.7059,0.7055,0.7051,0.7043,0.704,0.704,0.7027,0.7023,0.7015,0.7013,0.7011,0.7009,0.701,0.7004,0.7004,0.7003,0.7001,0.7,0.7009,0.7009,0.7009,0.7009,0,0.7079,0.7074,0.7072,0.7064,0.7061,0.7056,0.705,0.7046,0.7043,0.7039,0.7032,0.7026,0.7018,0.7016,0.7013,0.7007,0.7007,0.7006,0.7005,0.7003,0.7,0.7,0.7009,0.7009,0.7009,0.7009,0,0,0.7083,0.7072,0.7071,0.7067,0.7059,0.7055,0.7049,0.7042,0.7038,0.7033,0.7027,0.7019,0.7017,0.7013,0.7009,0.7005,0.7001,0.7004,0.7004,0.7003,0.6991,0.6992,0.6991,0.6999,0.6999,0.6998,0.6992,0,0.7082,0.7073,0.7067,0.706,0.7055,0.705,0.7045,0.7039,0.7034,0.7028,0.7023,0.7016,0.7015,0.7012,0.7008,0.7002,0.6998,0.7003,0.6993,0.6992,0.6994,0.699,0.6991,0.6984,0.6991,0.699,0.699,0,0.7079,0.7073,0.7065,0.7056,0.7053,0.7049,0.7041,0.7036,0.7028,0.7025,0.7019,0.7015,0.7008,0.7008,0.6998,0.7001,0.6996,0.6992,0.6992,0.699,0.6991,0.6987,0.6982,0.6981,0.6989,0.6989,0.6989,0,0.7081,0.7071,0.7065,0.7061,0.7051,0.7047,0.7043,0.7035,0.7031,0.7023,0.702,0.7012,0.7007,0.7001,0.6994,0.6995,0.6983,0.6984,0.6979,0.6979,0.6977,0.6977,0.6971,0.6975,0.6975,0.6975,0.6975,0,0.708,0.7075,0.7065,0.7061,0.7055,0.7049,0.7042,0.7037,0.703,0.7024,0.7019,0.7013,0.7005,0.6998,0.6993,0.6984,0.6982,0.6978,0.6977,0.6978,0.6978,0.6975,0.6975,0.6975,0.6975,0.6975,0.6975,0,0.7082,0.7075,0.7067,0.7058,0.7055,0.7051,0.7042,0.7037,0.7031,0.7024,0.7021,0.7013,0.7004,0.6996,0.6985,0.6981,0.6971,0.697,0.6974,0.6973,0.6969,0.6969,0.6959,0.6957,0.6964,0.6964,0.6964,0,0.7081,0.7077,0.7066,0.7062,0.7057,0.705,0.7045,0.7038,0.7033,0.7023,0.7019,0.7009,0.7002,0.6987,0.698,0.697,0.6968,0.6965,0.6967,0.6968,0.6967,0.6967,0.6965,0.6965,0.6965,0.6965,0.6965,0,0.708,0.7076,0.707,0.7061,0.7055,0.7048,0.7041,0.7037,0.7029,0.7023,0.7013,0.7007,0.6995,0.6985,0.6975,0.6969,0.6965,0.6964,0.6963,0.6964,0.6966,0.6964,0.6973,0.6965,0.6965,0.6965,0.6965,0.6965,0.708,0.7075,0.7066,0.7058,0.7052,0.7045,0.7039,0.7033,0.7025,0.7014,0.7011,0.7001,0.6991,0.6976,0.697,0.6962,0.6961,0.6959,0.6959,0.6958,0.6957,0.6968,0.696,0.696,0.696,0.696,0.696,0,0.7077,0.7071,0.7064,0.7053,0.7047,0.7044,0.7035,0.7029,0.7021,0.7012,0.7004,0.6993,0.6983,0.6973,0.6963,0.6957,0.6955,0.6955,0.6955,0.6953,0.6959,0.6961,0.6957,0.6957,0.6957,0.6957,0.6957,0.6957,0.7075,0.7067,0.7062,0.705,0.7044,0.7034,0.7029,0.7022,0.7015,0.7002,0.6994,0.6988,0.6978,0.6967,0.6957,0.6954,0.695,0.695,0.6947,0.6952,0.6953,0.6953,0.6955,0.6949,0.6949,0.6941,0.6941,0.6941]}]]